Location: Unspecified
(49.2170°N, 0.0000°E)
Time: 06:02:03
(UTC+00:00)

Courier 1B Rocket - Pass Details

Date: 27 January 2021
Orbit: 920 x 1202 km, 28.3° (Epoch: 05 March)

Event Time Altitude Azimuth Distance (km) Brightness Sun altitude
Rises 06:25:15 0° 219° (SW) 3,655 7.8 -11.8°
Reaches altitude 10° 06:30:27 10° 184° (S) 2,781 7.5 -11.0°
Maximum altitude 06:32:00 11° 171° (S) 2,744 7.7 -10.8°
Drops below altitude 10° 06:33:34 10° 157° (SSE) 2,829 8.0 -10.5°
Sets 06:39:03 0° 124° (ESE) 3,872 9.8 -9.7°
